FW0683 Weather Reports


Display with metric or nautical units.
time (UTC)temp
F
wind
direction
speed
MPH
gust
MPH
rain 1hr
in
rain 24hr
in
rain mn
in
humidity
%
barometer
mb
20260901194556 66 108 0.0 0.0 0.00 0.22 0.22 86 1022.0
20260901193047 66 6 0.0 0.0 0.00 0.22 0.22 86 1022.2
20260901191545 66 100 0.0 0.0 0.00 0.22 0.22 87 1022.3
20260901190050 66 98 0.0 0.0 0.00 0.22 0.22 87 1022.4
20260901184546 66 94 0.0 0.0 0.00 0.22 0.22 88 1022.4
20260901183038 65 94 0.0 0.0 0.00 0.22 0.22 89 1022.2
20260901181537 65 88 0.0 0.0 0.01 0.22 0.22 89 1022.3
20260901180034 65 73 0.0 0.0 0.01 0.22 0.22 90 1022.0
20260901174539 64 59 0.0 0.0 0.01 0.22 0.22 90 1022.0
20260901173035 64 89 0.0 0.0 0.01 0.22 0.22 90 1021.8
20260901171531 64 82 0.0 0.0 0.00 0.21 0.21 90 1021.9
20260901170029 63 41 0.0 0.0 0.00 0.21 0.21 89 1021.9
20260901164529 63 41 0.0 0.0 0.00 0.21 0.21 90 1022.0
20260901163033 63 41 0.0 0.0 0.00 0.21 0.21 89 1022.2
20260901161526 63 97 0.0 0.0 0.00 0.21 0.21 90 1022.5
20260901160024 63 80 0.0 0.0 0.00 0.21 0.21 90 1022.3
20260901154524 63 79 0.0 0.0 0.00 0.21 0.21 90 1022.0
20260901153023 63 344 0.0 0.0 0.00 0.21 0.21 90 1021.8
20260901151530 62 103 0.0 0.0 0.00 0.21 0.21 91 1022.1
20260901150024 62 329 0.0 0.0 0.00 0.21 0.21 92 1022.0
20260901144521 61 82 0.0 0.0 0.01 0.21 0.21 93 1022.1
20260901143017 60 96 0.0 0.0 0.03 0.21 0.21 94 1022.1
20260901141513 59 95 0.0 0.0 0.04 0.21 0.21 94 1021.9
20260901140010 59 94 0.0 0.0 0.05 0.21 0.21 94 1022.0
20260901134509 59 95 0.0 0.0 0.06 0.20 0.20 94 1022.2
20260901133007 59 94 0.0 0.0 0.07 0.18 0.18 94 1022.3
20260901131506 58 94 0.0 0.0 0.10 0.17 0.17 94 1022.5
20260901130004 58 94 0.0 0.0 0.12 0.16 0.16 94 1022.5
20260901124505 58 94 0.0 0.0 0.13 0.14 0.14 94 1022.6
20260901123004 58 94 0.0 0.0 0.11 0.11 0.11 93 1022.8
20260901121609 58 94 0.0 0.0 0.07 0.07 0.07 93 1022.7
20260901120059 58 94 0.0 0.0 0.04 0.04 0.04 93 1022.3
20260901114558 58 94 0.0 0.0 0.01 0.01 0.01 93 1022.3
20260901113104 58 94 0.0 0.0 0.00 0.00 0.00 93 1021.9
20260901111556 57 94 0.0 0.0 0.00 0.00 0.00 93 1022.1
20260901110103 57 94 0.0 0.0 0.00 0.00 0.00 93 1022.0
20260901104600 57 94 0.0 0.0 0.00 0.00 0.00 93 1021.9
20260901103054 57 94 0.0 0.0 0.00 0.00 0.00 93 1021.6
20260901101550 57 94 0.0 0.0 0.00 0.00 0.00 93 1021.4
20260901100104 56 94 0.0 0.0 0.00 0.00 0.00 93 1021.3
20260901094554 56 94 0.0 0.0 0.00 0.00 0.00 93 1021.3
20260901093102 56 94 0.0 0.0 0.00 0.00 0.00 93 1021.2
20260901091559 56 94 0.0 0.0 0.00 0.00 0.00 93 1021.3
20260901090049 56 94 0.0 0.0 0.00 0.00 0.00 93 1021.2
20260901084549 56 94 0.0 0.0 0.00 0.00 0.00 93 1021.2
20260901083051 57 94 0.0 0.0 0.00 0.00 0.00 93 1021.3
20260901081548 56 94 0.0 0.0 0.00 0.00 0.00 93 1021.3
20260901080047 57 94 0.0 0.0 0.00 0.00 0.00 93 1021.1
20260901074547 57 94 0.0 0.0 0.00 0.00 0.00 93 1021.4
20260901073049 57 94 0.0 0.0 0.00 0.00 0.00 93 1021.4
20260901071544 57 94 0.0 0.0 0.00 0.00 0.00 93 1021.6
20260901070050 56 94 0.0 0.0 0.00 0.00 0.00 93 1021.6
20260901064545 56 94 0.0 0.0 0.00 0.00 0.00 93 1021.5
20260901063042 56 94 0.0 0.0 0.00 0.00 0.00 93 1021.7
20260901061541 56 94 0.0 0.0 0.00 0.00 0.00 93 1021.6
20260901060043 55 94 0.0 0.0 0.00 0.00 0.00 92 1021.7
20260901054541 56 94 0.0 0.0 0.00 0.00 0.00 92 1021.7
20260901053040 56 94 0.0 0.0 0.00 0.00 0.00 92 1021.7
20260901051544 56 94 0.0 0.0 0.00 0.00 0.00 92 1021.8
20260901050037 56 94 0.0 0.0 0.00 0.00 0.00 92 1021.6
20260901044547 56 94 0.0 0.0 0.00 0.00 0.00 92 1021.8
20260901043033 57 94 0.0 0.0 0.00 0.00 0.00 92 1021.7
20260901041533 57 94 0.0 0.0 0.00 0.00 0.00 91 1021.8
20260901040035 57 94 0.0 0.0 0.00 0.00 0.00 91 1021.8
20260901034529 57 94 0.0 0.0 0.00 0.00 0.00 91 1021.7
20260901033029 57 94 0.0 0.0 0.00 0.00 0.00 90 1021.8
20260901031528 57 94 0.0 0.0 0.00 0.00 0.00 90 1021.9
20260901030028 58 94 0.0 0.0 0.00 0.04 0.00 89 1022.0
20260901024531 58 94 0.0 0.0 0.00 0.04 0.00 89 1021.9
20260901023032 58 94 0.0 0.0 0.00 0.04 0.00 88 1021.9
20260901021529 59 94 0.0 0.0 0.00 0.04 0.00 88 1021.9
20260901020025 59 94 0.0 0.0 0.00 0.04 0.00 87 1021.8
20260901014526 59 94 0.0 0.0 0.00 0.04 0.00 86 1021.9
20260901013026 60 94 0.0 0.0 0.00 0.04 0.00 86 1022.0
20260901011525 60 94 0.0 0.0 0.00 0.04 0.00 85 1022.1
20260901010025 61 94 0.0 0.0 0.00 0.04 0.00 83 1022.1
20260901004532 62 94 0.0 0.0 0.00 0.04 0.00 81 1022.1
20260901003026 63 94 0.0 0.0 0.00 0.04 0.00 79 1021.9
20260901001527 63 94 0.0 0.0 0.00 0.04 0.00 78 1021.8
20260901000023 64 94 0.0 0.0 0.00 0.04 0.00 78 1021.8
20260831234522 65 94 0.0 0.0 0.00 0.04 0.00 76 1021.8
20260831233023 65 54 0.0 0.0 0.00 0.04 0.00 75 1021.9
20260831231524 67 54 0.0 0.0 0.00 0.04 0.00 73 1021.9
20260831230020 68 54 0.0 0.0 0.00 0.04 0.00 71 1022.0
20260831224520 69 72 0.0 0.0 0.00 0.04 0.00 71 1022.0
20260831223021 69 96 0.0 0.0 0.00 0.04 0.00 71 1022.0
20260831221530 69 63 0.0 0.0 0.00 0.04 0.00 70 1021.9
20260831220018 69 81 0.0 0.0 0.00 0.04 0.00 69 1021.9
20260831214533 70 72 0.0 0.0 0.00 0.04 0.00 66 1021.8
20260831213017 71 250 0.0 0.0 0.00 0.04 0.00 63 1021.9
20260831211521 71 214 0.0 0.0 0.00 0.04 0.00 64 1022.1
20260831210016 72 86 0.0 0.0 0.00 0.04 0.00 63 1022.0
20260831204516 72 88 0.0 0.0 0.00 0.04 0.00 62 1022.2
20260831203015 73 141 0.0 0.0 0.00 0.04 0.00 62 1022.2
20260831201523 73 27 0.0 0.0 0.00 0.04 0.00 60 1022.2